Date,TemperatureHighF,TemperatureAvgF,TemperatureLowF,DewpointHighF,DewpointAvgF,DewpointLowF,HumidityHigh,HumidityAvg,HumidityLow,PressureMaxIn,PressureMinIn,WindSpeedMaxMPH,WindSpeedAvgMPH,GustSpeedMaxMPH,PrecipitationSumIn
2013-1-1,35,33,31,35,32,31,100,99,91,0.00,40.00,6,2,19,1.15
2013-1-2,32,32,32,32,32,32,100,100,100,0.00,40.00,1,0,6,0.01
2013-1-3,35,34,32,34,33,31,100,97,88,0.00,40.00,6,3,13,0.43
2013-1-4,33,31,28,33,31,28,100,100,100,0.00,40.00,1,0,4,0.09
2013-1-5,39,32,29,35,31,25,100,95,67,0.00,40.00,5,1,14,0.10
2013-1-6,36,33,29,34,31,26,100,95,67,0.00,40.00,4,1,14,0.05
2013-1-7,34,33,32,33,31,29,100,93,82,0.00,40.00,4,2,10,0.04
2013-1-8,32,28,17,32,27,17,100,98,86,0.00,40.00,2,0,6,0.00
2013-1-9,24,16,11,23,14,8,98,92,87,0.00,40.00,2,0,7,0.00
2013-1-10,28,25,20,27,25,19,100,98,95,0.00,40.00,1,0,5,0.00
2013-1-11,35,31,21,32,28,20,100,90,71,0.00,40.00,5,1,15,0.00
2013-1-12,33,31,27,33,31,27,100,100,100,0.00,40.00,1,0,4,0.12
2013-1-13,35,33,32,35,33,32,100,100,100,0.00,40.00,1,0,9,0.56
2013-1-14,38,34,31,38,34,30,100,100,99,0.00,40.00,2,0,9,0.50
2013-1-15,30,23,17,30,23,16,100,98,94,0.00,40.00,1,0,4,0.03
2013-1-16,28,24,17,28,24,16,100,98,94,0.00,40.00,1,0,7,0.00
2013-1-17,25,20,11,24,17,8,96,86,69,0.00,40.00,2,1,11,0.00
2013-1-18,17,13,2,14,9,-2,88,84,77,0.00,40.00,1,0,4,0.00
2013-1-19,37,28,16,27,22,14,98,79,58,0.00,40.00,6,2,19,0.07
2013-1-20,36,33,26,35,31,26,100,93,71,0.00,40.00,6,3,16,0.45
2013-1-21,44,33,24,39,30,24,100,90,60,0.00,40.00,7,2,15,0.32
2013-1-22,44,41,36,35,30,27,84,66,56,0.00,40.00,5,3,14,0.47
2013-1-23,44,39,34,38,31,26,100,74,56,0.00,40.00,5,2,12,0.01
2013-1-24,38,33,28,34,30,26,100,91,65,0.00,40.00,2,0,9,0.00
2013-1-25,31,24,14,29,16,-6,100,74,40,0.00,40.00,5,2,16,0.00
2013-1-26,15,9,5,-2,-10,-14,53,41,32,0.00,40.00,5,2,17,0.00
2013-1-27,7,2,-6,-10,-16,-22,51,40,28,0.00,40.00,4,2,13,0.00
2013-1-28,14,2,-6,10,-12,-23,83,53,39,0.00,40.00,3,1,9,0.00
2013-1-29,28,22,14,23,19,10,96,88,77,0.00,40.00,1,0,6,0.00
2013-1-30,44,33,24,35,28,23,100,84,49,0.00,40.00,8,2,23,0.32
2013-1-31,35,31,25,35,31,24,100,100,100,0.00,40.00,0,0,3,0.21
2013-2-1,41,32,22,37,30,22,100,93,70,0.00,40.00,4,1,14,0.23
2013-2-2,40,35,31,38,33,28,100,93,67,0.00,40.00,3,1,14,0.14
2013-2-3,40,36,31,35,31,28,100,86,63,0.00,40.00,5,1,14,0.05
2013-2-4,35,32,30,35,32,30,100,100,100,0.00,40.00,1,0,3,0.05
2013-2-5,33,28,22,31,28,22,100,98,87,0.00,40.00,2,0,6,0.01
2013-2-6,31,27,23,30,26,20,100,95,79,0.00,40.00,3,1,9,0.00
2013-2-7,35,28,17,30,25,16,100,91,70,0.00,40.00,5,1,12,0.00
2013-2-8,35,28,22,30,27,22,100,96,75,0.00,40.00,1,0,4,0.00
2013-2-9,41,35,29,35,31,25,100,84,58,0.00,40.00,10,4,30,0.49
2013-2-10,36,33,31,35,32,30,100,98,93,0.00,40.00,4,1,11,0.48
2013-2-11,31,26,15,31,22,14,100,86,58,0.00,40.00,2,1,9,0.01
2013-2-12,34,27,20,28,24,18,100,90,75,0.00,40.00,3,1,9,0.00
2013-2-13,37,32,26,31,28,23,100,87,59,0.00,40.00,5,1,19,0.00
2013-2-14,40,36,31,34,28,21,97,75,50,0.00,40.00,5,3,19,0.25
2013-2-15,34,28,21,31,24,12,100,85,59,0.00,40.00,4,1,11,0.01
2013-2-16,31,19,9,17,10,7,93,71,46,0.00,40.00,4,1,18,0.00
2013-2-17,35,30,25,27,22,17,92,72,53,0.00,40.00,5,3,14,0.00
2013-2-18,26,20,7,21,11,2,83,71,52,0.00,40.00,3,2,11,0.00
2013-2-19,34,20,8,25,12,2,79,70,54,0.00,40.00,6,2,20,0.00
2013-2-20,34,28,24,23,22,20,90,78,62,0.00,40.00,6,2,13,0.00
2013-2-21,35,26,20,24,21,18,94,82,59,0.00,40.00,2,1,9,0.00
2013-2-22,33,25,15,24,13,5,86,62,38,0.00,40.00,3,2,10,0.00
2013-2-23,34,25,13,27,17,5,97,74,56,0.00,40.00,6,1,14,0.00
2013-2-24,38,29,23,28,25,22,100,87,67,0.00,40.00,2,0,6,0.04
2013-2-25,40,33,22,30,26,21,97,76,57,0.00,40.00,6,3,17,0.02
2013-2-26,45,36,33,32,27,21,96,70,43,0.00,40.00,7,5,17,0.02
2013-2-27,38,33,31,34,32,28,100,94,78,0.00,40.00,5,2,12,0.20
2013-2-28,40,33,29,33,31,26,100,90,70,0.00,40.00,2,0,11,0.09
2013-3-1,37,31,25,30,29,24,100,91,73,0.00,40.00,2,0,7,0.07
2013-3-2,39,26,15,27,22,13,100,86,58,0.00,40.00,1,0,5,0.03
2013-3-3,44,35,20,28,25,20,100,70,45,0.00,40.00,4,2,15,0.01
2013-3-4,44,35,28,32,30,28,100,83,58,0.00,40.00,2,1,7,0.01
2013-3-5,45,34,28,34,29,24,100,83,52,0.00,40.00,3,1,9,0.00
2013-3-6,41,33,27,30,27,23,91,79,63,0.00,40.00,2,0,9,0.00
2013-3-7,42,36,30,32,27,21,93,71,42,0.00,40.00,9,4,27,0.08
2013-3-8,45,39,32,32,27,23,100,65,49,0.00,40.00,7,2,20,0.08
2013-3-9,46,34,29,37,31,29,100,90,61,0.00,40.00,2,0,7,0.05
2013-3-10,35,31,26,31,28,23,100,89,80,0.00,40.00,1,0,5,0.03
2013-3-11,37,30,23,28,23,16,100,77,52,0.00,40.00,3,1,10,0.01
2013-3-12,36,22,12,16,11,5,93,67,36,0.00,40.00,3,1,8,0.00
2013-3-13,37,17,4,12,3,-7,83,58,17,0.00,40.00,3,1,11,0.00
2013-3-14,33,24,18,22,14,5,94,67,45,0.00,40.00,4,2,10,0.00
2013-3-15,40,21,7,23,14,3,93,78,45,0.00,40.00,1,0,4,0.00
2013-3-16,40,17,2,19,7,-3,88,69,33,0.00,40.00,1,0,5,0.00
2013-3-17,40,21,3,16,5,-2,88,56,24,0.00,40.00,3,1,11,0.02
2013-3-18,38,18,3,8,2,-2,80,54,27,0.00,40.00,3,1,9,0.01
2013-3-19,32,18,2,6,-1,-7,76,46,22,0.00,40.00,4,2,13,0.01
2013-3-20,33,21,11,-1,-6,-13,48,30,15,0.00,40.00,4,2,16,0.00
2013-3-21,37,18,1,7,-1,-6,74,48,18,0.00,40.00,2,1,6,0.00
2013-3-22,30,26,21,27,20,7,100,80,52,0.00,40.00,3,1,7,0.00
2013-3-23,42,32,26,32,29,26,100,89,64,0.00,40.00,1,0,7,0.00
2013-3-24,30,27,24,30,25,21,100,90,80,0.00,40.00,3,1,9,0.00
2013-3-25,27,22,9,21,15,2,93,75,50,0.00,40.00,4,2,16,0.00
2013-3-26,29,14,5,7,1,-5,78,58,35,0.00,40.00,3,1,7,0.00
2013-3-27,35,9,-10,7,-4,-18,72,57,28,0.00,40.00,2,0,6,0.00
2013-3-28,38,34,26,19,18,15,75,51,43,0.00,40.00,6,4,19,0.00
2013-3-29,42,37,31,27,23,19,70,57,45,0.00,40.00,5,3,16,0.24
2013-3-30,49,34,25,33,27,22,99,77,47,0.00,40.00,3,1,11,0.24
2013-3-31,51,34,26,34,27,19,100,79,35,0.00,40.00,4,1,8,0.18
2013-4-1,45,33,21,26,21,15,100,66,36,0.00,40.00,3,1,9,0.03
2013-4-2,50,30,16,26,18,15,95,68,28,0.00,40.00,3,0,11,0.01
2013-4-3,51,33,20,28,21,16,98,65,29,0.00,40.00,4,1,11,0.00
2013-4-4,49,30,15,23,16,6,97,65,24,0.00,40.00,3,0,8,0.00
2013-4-5,46,28,12,21,16,10,92,65,29,0.00,40.00,3,1,11,0.00
2013-4-6,43,31,27,30,25,22,94,78,51,0.00,40.00,3,1,10,0.00
2013-4-7,36,26,17,24,12,0,91,59,31,0.00,40.00,5,2,14,0.01
2013-4-8,30,21,12,13,9,1,76,61,46,0.00,40.00,3,2,12,0.01
2013-4-9,32,22,18,12,8,2,73,54,31,0.00,40.00,4,2,13,0.00
2013-4-10,30,20,7,5,0,-5,58,41,25,0.00,40.00,4,2,12,0.00
2013-4-11,33,16,-1,2,-4,-8,73,46,19,0.00,40.00,5,2,14,0.00
2013-4-12,35,19,4,2,-2,-7,73,44,20,0.00,40.00,4,2,14,0.01
2013-4-13,40,23,5,4,1,-3,69,42,21,0.00,40.00,3,2,13,0.01
2013-4-14,45,29,16,12,6,1,57,39,21,0.00,40.00,4,2,12,0.00
2013-4-15,48,26,12,19,8,3,76,51,20,0.00,40.00,3,1,9,0.00
2013-4-16,44,26,10,14,8,1,81,50,22,0.00,40.00,3,1,9,0.00
2013-4-17,38,27,17,10,7,4,63,44,27,0.00,40.00,4,2,15,0.00
2013-4-18,49,29,13,16,11,7,79,50,25,0.00,40.00,2,1,10,0.00
2013-4-19,51,29,14,19,12,8,86,54,21,0.00,40.00,4,1,11,0.00
2013-4-20,52,27,15,21,14,9,91,64,17,0.00,40.00,4,1,11,0.00
2013-4-21,42,35,24,23,20,16,80,56,42,0.00,40.00,6,2,16,0.00
2013-4-22,58,39,26,29,23,20,85,55,26,0.00,40.00,4,1,11,0.00
2013-4-23,39,36,31,36,33,24,100,88,74,0.00,40.00,5,2,15,0.54
2013-4-24,52,40,30,38,31,16,100,75,47,0.00,40.00,4,1,14,0.06
2013-4-25,51,40,26,23,12,0,71,37,16,0.00,40.00,4,2,16,0.01
2013-4-26,47,35,22,14,9,1,59,36,17,0.00,40.00,4,2,12,0.00
2013-4-27,48,36,20,16,12,6,74,41,19,0.00,40.00,3,1,10,0.00
2013-4-28,47,37,27,11,6,-2,51,28,16,0.00,40.00,4,3,16,0.00
2013-4-29,51,33,19,20,14,12,76,50,21,0.00,40.00,3,1,9,0.00
2013-4-30,44,37,29,27,22,19,79,55,38,0.00,40.00,2,1,6,0.00
2013-5-1,51,39,28,27,23,21,82,57,33,0.00,40.00,5,2,12,0.00
2013-5-2,45,37,33,38,34,24,100,88,69,0.00,40.00,3,1,9,0.16
2013-5-3,45,39,34,39,36,34,100,90,70,0.00,40.00,4,1,12,0.09
2013-5-4,41,36,32,37,34,32,100,92,83,0.00,40.00,2,1,6,0.62
2013-5-5,54,40,28,33,28,24,100,66,35,0.00,40.00,3,1,8,0.01
2013-5-6,54,41,29,32,28,23,100,64,34,0.00,40.00,4,1,10,0.00
2013-5-7,51,40,30,32,28,25,96,64,39,0.00,40.00,3,2,9,0.00
2013-5-8,58,40,24,31,25,19,100,64,26,0.00,40.00,5,1,11,0.00
2013-5-9,58,41,27,33,27,22,91,62,28,0.00,40.00,3,1,9,0.00
2013-5-10,65,47,28,32,27,21,90,52,22,0.00,40.00,4,1,10,0.00
2013-5-11,55,46,38,41,38,32,100,75,51,0.00,40.00,3,1,9,0.02
2013-5-12,56,45,37,43,40,37,100,83,52,0.00,40.00,3,0,7,0.05
2013-5-13,49,42,38,41,39,34,100,88,63,0.00,40.00,4,1,9,0.48
2013-5-14,40,35,33,37,34,28,100,94,73,0.00,40.00,3,1,9,0.28
2013-5-15,47,37,25,33,28,24,100,75,40,0.00,40.00,3,1,10,0.01
2013-5-16,47,38,35,35,11,-100,92,64,46,0.00,40.00,7,3,21,0.01
2013-5-17,41,38,36,37,28,-100,99,85,59,0.00,40.00,3,1,12,0.28
2013-5-18,40,35,31,35,24,18,100,66,45,0.00,40.00,4,2,14,0.05
2013-5-19,50,40,23,27,14,8,88,41,20,0.00,40.00,4,2,11,0.01
2013-5-20,59,38,21,28,20,13,93,54,16,0.00,40.00,4,1,10,0.00
2013-5-21,59,42,26,31,24,20,91,53,24,0.00,40.00,3,1,11,0.00
2013-5-22,58,44,32,38,32,24,85,65,40,0.00,40.00,3,2,11,0.00
2013-5-23,62,47,38,41,38,34,100,75,43,0.00,40.00,2,1,9,0.00
2013-5-24,69,47,28,40,34,28,100,68,25,0.00,40.00,3,1,10,0.00
2013-5-25,65,47,27,38,33,27,100,65,34,0.00,40.00,5,2,14,0.00
2013-5-26,48,43,36,47,40,35,100,92,71,0.00,40.00,3,1,10,0.21
2013-5-27,65,52,42,46,42,38,100,73,42,0.00,40.00,5,2,14,0.06
2013-5-28,79,54,32,42,37,28,100,63,17,0.00,40.00,4,1,10,0.00
2013-5-29,79,51,33,42,35,32,100,62,21,0.00,40.00,5,2,13,0.00
2013-5-30,69,55,33,45,39,33,100,59,34,0.00,40.00,6,3,14,0.00
2013-5-31,62,50,43,43,41,39,88,71,48,0.00,40.00,5,2,12,0.00
2013-6-1,57,48,43,45,42,39,100,80,57,0.00,40.00,4,1,11,0.08
2013-6-2,60,48,43,44,41,35,100,80,45,0.00,40.00,4,2,11,0.25
2013-6-3,58,48,39,44,37,31,100,71,42,0.00,40.00,4,2,10,0.01
2013-6-4,55,47,40,43,37,33,88,68,55,0.00,40.00,4,1,11,0.03
2013-6-5,63,48,29,39,33,28,100,61,32,0.00,40.00,3,1,11,0.01
2013-6-6,67,52,42,34,31,25,67,47,22,0.00,40.00,4,2,13,0.00
2013-6-7,70,52,34,39,34,30,94,56,23,0.00,40.00,5,2,14,0.00
2013-6-8,79,56,36,47,38,34,100,58,23,0.00,40.00,2,1,8,0.00
2013-6-9,80,53,37,52,41,36,100,68,25,0.00,40.00,3,1,11,0.04
2013-6-10,80,60,36,47,39,35,100,55,20,0.00,40.00,3,1,13,0.04
2013-6-11,79,59,39,53,42,38,98,59,26,0.00,40.00,3,0,11,0.00
2013-6-12,73,56,37,49,42,37,100,65,29,0.00,40.00,3,1,11,0.00
2013-6-13,65,53,41,55,47,40,100,83,54,0.00,40.00,4,1,13,0.18
2013-6-14,77,55,43,53,47,43,100,78,35,0.00,40.00,5,2,16,0.02
2013-6-15,81,56,40,52,45,40,100,75,25,0.00,40.00,3,1,11,0.00
2013-6-16,85,63,42,52,47,42,100,64,27,0.00,40.00,3,1,9,0.00
2013-6-17,92,66,44,54,49,44,100,62,24,0.00,40.00,2,0,6,0.00
2013-6-18,78,61,47,58,48,42,100,67,31,0.00,40.00,6,2,17,0.02
2013-6-19,66,54,39,52,46,39,100,76,45,0.00,40.00,5,2,17,0.04
2013-6-20,63,48,38,53,45,38,100,92,70,0.00,40.00,4,1,10,0.01
2013-6-22,65,56,42,47,45,42,99,68,49,0.00,40.00,5,2,11,0.00
2013-6-23,64,55,46,49,46,43,96,72,50,0.00,40.00,3,2,10,0.00
2013-6-24,75,59,47,50,47,45,91,67,34,0.00,40.00,2,0,6,0.00
2013-6-25,79,62,42,56,49,42,100,65,38,0.00,40.00,3,1,10,0.00
2013-6-26,71,61,45,55,50,45,100,70,45,0.00,40.00,4,1,14,0.00
2013-6-27,73,58,47,57,52,47,100,80,53,0.00,40.00,5,2,13,0.00
2013-6-28,60,54,51,54,52,50,96,90,78,0.00,40.00,2,1,9,0.00
2013-6-29,68,58,51,54,52,50,99,83,59,0.00,40.00,3,1,8,0.00
2013-6-30,56,53,50,52,50,46,95,90,84,0.00,40.00,4,2,12,0.00
2013-7-1,54,51,46,50,47,45,100,88,71,0.00,40.00,3,1,10,0.09
2013-7-2,56,49,45,49,46,44,100,89,68,0.00,40.00,3,2,10,0.06
2013-7-3,55,50,46,48,46,45,98,85,73,0.00,40.00,3,2,11,0.02
2013-7-4,53,49,46,51,47,44,100,94,89,0.00,40.00,2,1,9,0.18
2013-7-5,56,50,45,50,48,45,100,93,73,0.00,40.00,2,0,6,0.50
2013-7-6,59,51,46,52,49,46,100,92,78,0.00,40.00,1,0,6,0.45
2013-7-7,61,52,48,54,49,45,100,89,75,0.00,40.00,4,1,12,0.30
2013-7-8,67,51,43,50,45,43,100,84,46,0.00,40.00,4,1,10,0.01
2013-7-9,68,56,46,51,47,44,99,75,47,0.00,40.00,2,0,7,0.00
2013-7-10,75,58,43,53,43,-100,100,65,36,0.00,40.00,2,1,7,0.00
2013-7-11,81,57,43,55,48,43,100,76,32,0.00,40.00,3,0,9,0.00
2013-7-12,83,56,40,55,47,40,100,77,30,0.00,40.00,4,1,12,0.00
2013-7-13,70,59,47,56,52,46,98,78,57,0.00,40.00,5,2,14,0.00
2013-7-14,68,57,52,53,51,49,94,81,58,0.00,40.00,4,1,12,0.00
2013-7-15,74,58,47,58,51,47,100,82,55,0.00,40.00,3,0,9,0.00
2013-7-16,72,65,59,60,54,52,81,68,52,0.00,40.00,1,0,6,0.00
2013-7-17,75,62,51,61,55,51,99,79,51,0.00,40.00,2,0,7,0.00
2013-7-18,80,64,50,60,55,50,100,75,49,0.00,40.00,3,1,9,0.00
2013-7-19,74,64,54,58,54,47,99,72,44,0.00,40.00,3,1,10,0.00
2013-7-20,72,61,48,55,46,-100,95,64,34,0.00,40.00,3,1,13,0.00
2013-7-21,78,64,43,52,47,41,98,57,32,0.00,40.00,2,1,9,0.00
2013-7-22,82,64,45,54,50,43,98,65,32,0.00,40.00,4,2,12,0.00
2013-7-23,79,58,44,57,51,44,100,81,43,0.00,40.00,4,1,11,0.00
2013-7-24,83,60,44,58,51,44,100,76,34,0.00,40.00,5,2,16,0.00
2013-7-25,75,61,54,59,55,53,99,82,57,0.00,40.00,4,2,14,0.00
2013-7-26,72,61,55,62,56,54,100,85,64,0.00,40.00,3,1,10,0.61
2013-7-27,78,62,53,60,56,53,99,80,52,0.00,40.00,3,1,8,0.04
2013-7-28,83,60,47,61,54,47,100,84,43,0.00,40.00,5,1,12,0.00
2013-7-29,81,60,46,60,53,46,100,82,48,0.00,40.00,5,1,13,0.00
2013-7-30,81,62,52,62,55,52,100,82,53,0.00,40.00,6,2,14,0.00
2013-7-31,74,60,54,57,55,53,100,83,55,0.00,40.00,5,2,14,0.00
2013-8-1,71,61,54,57,53,50,94,77,55,0.00,40.00,5,2,13,0.00
2013-8-2,67,58,53,54,51,48,95,78,60,0.00,40.00,3,2,10,0.00
2013-8-3,60,55,52,54,52,50,100,91,75,0.00,40.00,4,2,16,0.28
2013-8-4,59,54,51,54,52,51,100,94,84,0.00,40.00,1,1,6,0.10
2013-8-5,61,55,51,55,52,50,100,92,78,0.00,40.00,2,1,11,0.02
2013-8-6,64,57,51,53,50,47,99,80,55,0.00,40.00,5,2,15,0.01
2013-8-7,63,55,51,56,53,49,100,93,72,0.00,40.00,2,0,9,0.14
2013-8-8,64,53,50,53,49,46,100,87,57,0.00,40.00,4,2,14,0.22
2013-8-9,61,54,48,53,49,45,100,86,65,0.00,40.00,4,2,11,0.37
2013-8-10,67,57,50,58,52,49,100,85,61,0.00,40.00,4,1,11,0.16
2013-8-11,57,53,49,56,53,49,100,98,95,0.00,40.00,0,0,2,0.70
2013-8-12,65,57,52,58,55,52,100,92,77,0.00,40.00,3,1,9,0.03
2013-8-13,71,58,52,58,52,-100,99,86,61,0.00,40.00,4,2,12,0.00
2013-8-14,69,55,51,54,50,-100,100,85,56,0.00,40.00,1,0,6,0.00
2013-8-15,73,50,39,56,33,-100,100,75,40,0.00,40.00,4,1,12,0.00
2013-8-16,57,51,47,56,48,-100,100,95,90,0.00,40.00,1,0,7,0.14
2013-8-17,63,56,50,57,52,50,100,88,65,0.00,40.00,3,1,9,0.01
2013-8-18,60,52,46,57,52,46,100,97,87,0.00,40.00,1,0,4,0.17
2013-8-21,54,51,49,53,51,49,100,98,89,0.00,40.00,2,0,9,0.49
2013-8-22,55,51,48,54,51,48,100,99,94,0.00,40.00,0,0,3,0.25
2013-8-23,68,55,50,57,52,50,100,91,57,0.00,40.00,1,0,8,0.02
2013-8-24,71,57,44,55,48,44,100,76,45,0.00,40.00,2,1,9,0.00
2013-8-25,73,51,36,52,43,36,100,79,37,0.00,40.00,4,1,11,0.00
2013-8-26,68,49,35,52,45,35,100,87,52,0.00,40.00,1,0,6,0.00
2013-8-27,56,47,44,52,46,44,100,98,86,0.00,40.00,0,0,3,0.00
2013-8-28,60,55,51,56,52,51,100,91,75,0.00,40.00,2,1,6,0.48
2013-8-29,57,53,50,56,52,50,100,96,87,0.00,40.00,2,1,9,0.81
2013-8-30,64,55,46,56,51,46,100,89,66,0.00,40.00,1,0,4,0.01
2013-8-31,56,52,48,54,51,48,100,96,82,0.00,40.00,1,0,5,0.04
2013-9-1,60,53,48,53,50,48,100,91,70,0.00,40.00,3,1,10,0.01
2013-9-2,59,52,49,55,51,48,100,95,78,0.00,40.00,3,1,11,0.32
2013-9-3,62,53,49,54,49,45,100,88,67,0.00,40.00,6,2,21,0.20
2013-9-4,60,52,44,54,49,43,100,92,66,0.00,40.00,3,1,10,0.77
2013-9-5,60,48,38,50,45,38,100,89,59,0.00,40.00,2,0,8,0.01
2013-9-6,56,51,44,54,49,44,100,93,69,0.00,40.00,4,1,9,0.61
2013-9-7,58,52,49,54,50,49,100,95,80,0.00,40.00,3,1,9,0.40
2013-9-17,51,46,43,49,45,43,100,97,90,0.00,40.00,0,0,3,0.10
2013-9-18,48,45,43,45,44,43,100,98,87,0.00,40.00,0,0,4,0.01
2013-9-19,49,43,31,45,39,28,100,89,59,0.00,40.00,2,0,10,0.04
2013-9-20,54,39,29,33,28,25,100,70,33,0.00,40.00,2,1,11,0.02
2013-9-21,49,38,27,40,35,27,100,88,65,0.00,40.00,2,1,9,0.01
2013-9-22,40,38,36,39,36,33,100,94,82,0.00,40.00,2,1,11,0.47
2013-9-23,39,34,29,37,33,28,100,95,83,0.00,40.00,2,1,7,0.17
2013-9-24,48,36,26,41,33,26,100,92,65,0.00,40.00,1,0,4,0.01
2013-9-25,51,45,42,48,44,40,100,94,77,0.00,40.00,5,2,15,1.07
2013-9-26,53,45,40,48,44,40,100,95,80,0.00,40.00,1,0,6,0.07
2013-9-27,48,44,41,43,41,40,100,89,74,0.00,40.00,5,2,16,0.15
2013-9-28,57,44,33,45,38,33,100,84,48,0.00,40.00,1,0,6,0.01
2013-9-29,51,41,31,38,34,31,100,79,55,0.00,40.00,3,1,11,0.00
2013-9-30,56,40,28,35,32,28,100,76,40,0.00,40.00,1,1,9,0.00
2013-10-3,51,44,37,42,39,37,100,85,61,0.00,40.00,6,3,21,0.03
2013-10-4,57,44,33,45,39,33,100,85,51,0.00,40.00,2,0,9,0.02
2013-10-5,51,39,29,45,36,29,100,93,75,0.00,40.00,3,1,11,0.00
2013-10-6,44,41,37,43,40,37,100,96,87,0.00,40.00,3,0,10,0.07
2013-10-7,50,37,28,43,35,28,100,94,69,0.00,40.00,1,0,5,0.03
2013-10-8,46,42,36,42,40,36,100,93,76,0.00,40.00,7,2,21,0.59
2013-10-9,53,41,28,38,32,26,100,76,41,0.00,40.00,3,1,17,0.11
2013-10-17,49,45,42,44,42,38,100,89,69,0.00,40.00,5,1,14,0.07
2013-10-18,48,43,40,43,40,35,100,91,60,0.00,40.00,6,2,19,0.65
2013-10-19,45,42,40,43,40,34,100,93,66,0.00,40.00,6,2,17,0.62
2013-10-20,44,39,36,41,38,36,100,98,90,0.00,40.00,2,0,9,0.18
2013-10-21,42,37,32,42,36,32,100,99,91,0.00,40.00,3,0,11,0.15
2013-10-22,44,36,27,43,35,27,100,97,76,0.00,40.00,1,0,4,0.05
2013-10-23,35,28,22,34,27,22,100,97,84,0.00,40.00,3,1,7,0.01
2013-10-24,44,35,23,39,33,23,100,94,65,0.00,40.00,5,2,17,0.66
2013-10-25,44,36,29,41,34,29,100,95,82,0.00,40.00,3,1,12,0.07
2013-10-26,42,32,26,40,31,26,100,98,87,0.00,40.00,1,0,4,0.00
2013-10-27,51,45,39,44,39,32,100,81,58,0.00,40.00,9,4,20,0.35
2013-10-28,50,45,37,48,43,-100,100,96,85,0.00,40.00,5,2,19,2.23
2013-10-29,44,37,31,43,36,31,100,99,79,0.00,40.00,4,0,11,0.01
2013-10-30,47,44,41,40,37,33,91,77,59,0.00,40.00,5,3,18,0.03
2013-10-31,44,40,36,41,38,36,100,92,84,0.00,40.00,2,0,7,0.06
2013-11-1,42,38,35,41,38,35,100,99,92,0.00,40.00,1,0,4,0.11
2013-11-2,40,36,34,37,36,34,100,97,85,0.00,40.00,2,0,11,0.04
2013-11-3,43,38,35,42,37,35,100,95,82,0.00,40.00,2,0,8,0.01
2013-11-4,44,42,36,38,35,33,100,78,68,0.00,40.00,5,2,12,0.00
2013-11-5,41,34,29,36,32,27,100,94,71,0.00,40.00,1,0,5,0.01
2013-11-6,34,26,22,26,24,21,100,89,66,0.00,40.00,2,0,6,0.01
2013-11-7,35,29,22,33,28,22,100,97,90,0.00,40.00,2,0,4,0.00
2013-11-8,33,26,20,27,22,17,100,86,61,0.00,40.00,3,1,8,0.00
2013-11-9,35,28,21,33,25,19,97,89,73,0.00,40.00,2,0,8,0.00
2013-11-10,33,32,32,33,32,32,100,100,100,0.00,40.00,1,0,6,0.21
2013-11-11,33,30,21,33,27,19,100,89,75,0.00,40.00,3,2,11,0.09
2013-11-12,23,18,16,19,16,13,100,91,79,0.00,40.00,3,2,9,0.01
2013-11-13,28,22,18,24,19,15,100,89,78,0.00,40.00,3,1,7,0.00
2013-11-14,36,30,24,34,29,21,100,96,53,0.00,40.00,2,0,14,0.00
2013-11-15,33,27,23,28,24,16,100,89,53,0.00,40.00,3,1,12,0.00
2013-11-16,29,24,20,20,9,4,78,52,42,0.00,40.00,4,2,16,0.00
2013-11-17,21,14,4,10,3,-2,86,64,38,0.00,40.00,3,1,11,0.00
2013-11-18,15,6,1,4,0,-3,93,78,45,0.00,40.00,3,1,10,0.00
2013-11-19,14,3,-3,4,-2,-5,95,81,49,0.00,40.00,2,1,7,0.00
2013-11-20,13,10,7,6,3,0,84,74,62,0.00,40.00,4,2,10,0.00
2013-11-21,36,17,5,35,13,1,98,85,64,0.00,40.00,10,2,29,0.94
2013-11-22,38,34,27,38,31,22,100,92,72,0.00,40.00,4,1,14,1.60
2013-11-23,26,21,13,25,20,13,100,98,90,0.00,40.00,0,0,4,0.01
2013-11-24,32,29,26,32,29,26,100,100,100,0.00,40.00,0,0,4,0.00
2013-11-25,33,29,27,33,29,27,100,100,96,0.00,40.00,1,0,5,0.00
2013-11-26,32,30,28,32,30,28,100,100,98,0.00,40.00,1,0,4,0.00
2013-12-12,14,9,2,9,7,1,97,90,75,0.00,40.00,2,0,6,0.00
2013-12-13,21,16,11,21,15,9,98,95,89,0.00,40.00,3,1,9,0.00
2013-12-14,25,20,16,25,19,15,100,98,93,0.00,40.00,2,1,9,0.00
2013-12-15,18,14,5,18,13,4,98,94,90,0.00,40.00,2,1,7,0.00
2013-12-16,6,-2,-7,6,-5,-10,98,90,87,0.00,40.00,2,0,5,0.00
2013-12-17,-1,-6,-11,-3,-9,-14,93,87,84,0.00,40.00,2,1,6,0.00
2013-12-18,28,4,-15,26,1,-19,100,88,83,0.00,40.00,5,2,14,0.00
2013-12-19,31,19,7,26,17,5,100,93,81,0.00,40.00,5,1,14,0.00
2013-12-20,27,17,9,27,16,8,100,97,95,0.00,40.00,1,0,4,0.00
2013-12-21,33,30,28,33,30,28,100,100,96,0.00,40.00,1,0,6,0.00
2013-12-22,33,31,24,33,30,20,100,94,84,0.00,40.00,3,1,10,0.00
2013-12-23,23,13,0,20,8,-1,95,83,49,0.00,40.00,5,1,12,0.00
2013-12-24,13,1,-7,13,0,-9,98,92,88,0.00,40.00,2,0,6,0.00
2013-12-25,4,1,-2,2,-1,-4,94,92,89,0.00,40.00,2,0,6,0.00
2013-12-26,11,5,-3,9,3,-5,98,93,89,0.00,40.00,2,0,4,0.00